This demonstration page uses our WeatherBlox Daily Observations layout. Learn more.

Left ArrowRight Arrow

Hourly Observations for December 8, 2021

Temp ( °F °C ) Dew Point ( °F °C ) Humidity (%) Winds ( mph kmh ) Pressure ( in mb ) Visibility ( mi km ) Precip ( " mm )
12:56 am 00:56 Cloudy 25 -3.9 15 -9.3 66 66 Calm 30.06 1018 10 16 0.00 0.00
1:56 am 01:56 undefined 25 -3.9 16 -8.9 69 69 Calm 30.02 1017 10 16 0.00 0.00
2:56 am 02:56 Cloudy 24 -4.2 16 -8.7 71 71 Calm 30.02 1017 10 16 0.00 0.00
3:56 am 03:56 Mostly Cloudy 25 -3.9 16 -8.8 69 69 Calm 30.02 1017 10 16 0.00 0.00
4:56 am 04:56 Clear 23 -4.9 16 -9 73 73 Calm 30.04 1017 10 16 0.00 0.00
5:56 am 05:56 Clear 21 -6 16 -9.1 79 79 Calm 30.05 1018 10 16 0.00 0.00
6:56 am 06:56 Clear 22 -5.6 16 -8.8 78 78 Calm 30.05 1018 10 16 0.00 0.00
7:56 am 07:56 Sunny 21 -6.2 16 -9.1 80 80 E 3 6 30.06 1018 10 16 0.00 0.00
8:56 am 08:56 Sunny 25 -3.9 17 -8.4 71 71 Calm 30.06 1018 10 16 0.00 0.00
9:56 am 09:56 undefined 31 -0.8 18 -8 59 59 E 5 7 30.07 1018 10 16 0.00 0.00
10:21 am 10:21 Sunny 33 0.4 16 -9.1 49 49 SE 8 13 30.07 1018 10 16 0.00 0.00
10:56 am 10:56 Sunny 35 1.4 16 -9 46 46 SE 10 17 30.07 1018 10 16 0.00 0.00
11:56 am 11:56 Sunny 38 3.4 16 -8.9 40 40 SE 9 15 30.04 1017 10 16 0.00 0.00
12:56 pm 12:56 Sunny 41 4.9 17 -8.2 38 38 SSE 9 15 29.98 1015 10 16 0.00 0.00
1:56 pm 13:56 Sunny 43 6 17 -8.3 35 35 SE 16 26 29.90 1013 10 16 0.00 0.00
2:56 pm 14:56 Sunny 45 7.3 18 -7.9 33 33 SSE 14 22 29.88 1012 10 16 0.00 0.00
3:56 pm 15:56 Partly Cloudy 44 6.9 19 -7.2 36 36 SE 9 15 29.87 1012 10 16 0.00 0.00
4:56 pm 16:56 Partly Cloudy 42 5.4 19 -7.1 40 40 ESE 7 11 29.84 1011 10 16 0.00 0.00
5:56 pm 17:56 Mostly Cloudy 41 4.8 20 -6.7 43 43 SE 10 17 29.82 1010 10 16 0.00 0.00
6:56 pm 18:56 Mostly Cloudy 40 4.4 21 -6.2 46 46 SE 12 19 29.83 1010 10 16 0.00 0.00
7:56 pm 19:56 Mostly Cloudy 39 4 21 -6 48 48 SE 13 20 29.78 1009 10 16 0.00 0.00
8:56 pm 20:56 Mostly Cloudy 40 4.5 22 -5.3 49 49 SE 13 20 29.77 1008 10 16 0.00 0.00
9:56 pm 21:56 Cloudy 41 5.1 24 -4.7 50 50 SSE 15 24 29.73 1007 10 16 0.00 0.00
10:56 pm 22:56 Mostly Cloudy 42 5.4 24 -4.2 50 50 SSE 9 15 29.68 1005 10 16 0.00 0.00
11:56 pm 23:56 undefined 43 6.3 26 -3.4 50 50 SSE 16 26 29.65 1004 10 16 0.00 0.00

Powered by AerisWeather